Ingonish Beach, Nova Scotia

3:33 AM ADT on October 20, 2017 (GMT -0300)
Ingonish Beach

Weather History for CXIB - November, 2012

Change the Weather History Date:

Tuesday, November 27, 2012

  Actual Average Record
Temperature  
Mean Temperature 32 °F -  
Max Temperature 36 °F - - ()
Min Temperature 28 °F - - ()
Degree Days  
Heating Degree Days 33    
Moisture  
Dew Point 23 °F    
Average Humidity 71    
Maximum Humidity 92    
Minimum Humidity 51    
Precipitation  
Precipitation 0.01 in - - ()
Sea Level Pressure  
Sea Level Pressure 30.17 in    
Wind  
Wind Speed 2 mph ()    
Max Wind Speed 5 mph    
Max Gust Speed -    
T = Trace of Precipitation, MM = Missing Value Source: Averaged Metar Reports

Daily Weather History Graph

Daily Weather History Graph

Search for Another Location

Airport or City:

Trip Planner

Search our weather history database for the weather conditions in past years. The results will help you decide how hot, cold, wet, or windy it might be!

Date:

Astronomy

Nov. 27, 2012 Rise Set
Actual Time 7:20 AM AST 4:17 PM AST
Civil Twilight 6:46 AM AST 4:51 PM AST
Nautical Twilight 6:09 AM AST 5:29 PM AST
Astronomical Twilight 5:32 AM AST 6:05 PM AST
Moon 3:46 PM AST (11/27) 6:19 AM AST (11/27)
Length of Visible Light 10h 04m
Length of Day
8h 56m
Waxing Gibbous, 99% of the Moon is Illuminated
Nov 27
Waxing Gibbous
Nov 28
Full
Dec 6
Last Quarter
Dec 13
New
Dec 20
First Quarter

Hourly Weather History & Observations

Time (AST) Temp. Windchill Dew Point Humidity Pressure Visibility Wind Dir Wind Speed Gust Speed Precip Events Conditions
12:00 AM 30.9 °F - 26.2 °F 83% 29.91 in - WSW 2.3 mph - N/A   Unknown
1:00 AM 30.7 °F 27.3 °F 25.5 °F 81% 29.94 in - WSW 3.5 mph - 0.01 in   Unknown
2:00 AM 31 °F - 25 °F 70% 29.97 in - West 3.5 mph - -  
2:00 AM 30.7 °F 27.3 °F 25.0 °F 79% 29.97 in - West 3.5 mph - N/A   Unknown
3:00 AM 29.3 °F - 25.5 °F 86% 29.99 in - West 2.3 mph - N/A   Unknown
4:00 AM 29.5 °F - 27.5 °F 92% 30.02 in - Calm Calm - N/A   Unknown
5:00 AM 29.7 °F - 26.4 °F 88% 30.04 in - WSW 1.2 mph - N/A   Unknown
6:00 AM 31.5 °F 28.1 °F 25.2 °F 78% 30.06 in - West 3.5 mph - N/A   Unknown
7:00 AM 31.5 °F - 25.3 °F 78% 30.09 in - West 2.3 mph - N/A   Unknown
8:00 AM 32 °F - 25 °F 66% 30.12 in - NW 2.3 mph - -  
8:00 AM 31.8 °F - 25.0 °F 76% 30.12 in - NW 2.3 mph - N/A   Unknown
9:00 AM 34.3 °F - 23.2 °F 64% 30.15 in - WSW 2.3 mph - N/A   Unknown
10:00 AM 34.2 °F 31.2 °F 26.1 °F 72% 30.17 in - WSW 3.5 mph - N/A   Unknown
11:00 AM 33.8 °F 29.6 °F 24.8 °F 70% 30.19 in - WSW 4.6 mph - N/A   Unknown
12:00 PM 32.9 °F 28.5 °F 23.4 °F 68% 30.20 in - WSW 4.6 mph - N/A   Unknown
1:00 PM 31.5 °F 26.8 °F 20.8 °F 65% 30.21 in - WSW 4.6 mph - N/A   Unknown
2:00 PM 32 °F - 21 °F 53% 30.22 in - WSW 3.5 mph - -  
2:00 PM 31.6 °F 28.3 °F 21.2 °F 65% 30.22 in - WSW 3.5 mph - N/A   Unknown
3:00 PM 32.0 °F 27.5 °F 20.7 °F 63% 30.24 in - West 4.6 mph - N/A   Unknown
4:00 PM 31.3 °F 27.9 °F 21.7 °F 68% 30.27 in - WSW 3.5 mph - N/A   Unknown
5:00 PM 30.9 °F - 20.1 °F 64% 30.28 in - NW 2.3 mph - N/A   Unknown
6:00 PM 30.7 °F - 20.1 °F 65% 30.30 in - SSW 1.2 mph - N/A   Unknown
7:00 PM 30.6 °F - 21.6 °F 69% 30.32 in - SE 1.2 mph - N/A   Unknown
8:00 PM 31 °F - 20 °F 51% 30.34 in - West 1.2 mph - -  
8:00 PM 30.6 °F - 19.9 °F 65% 30.34 in - West 1.2 mph - N/A   Unknown
9:00 PM 30.0 °F - 20.3 °F 67% 30.33 in - SSW 2.3 mph - N/A   Unknown
10:00 PM 29.3 °F - 22.3 °F 75% 30.33 in - SW 1.2 mph - N/A   Unknown
11:00 PM 28.9 °F - 22.8 °F 78% 30.33 in - WSW 1.2 mph - N/A   Unknown